Miscellaneous Local Product
Issued by NWS Hastings, NE

Home | Current Version | Previous Version | Text Only | Print | Product List | Glossary Off
Versions: 1 2 3 4 5 6 7 8 9 10 11 12 13 14 15 16 17 18 19 20 21 22 23 24 25 26 27 28 29 30 31 32 33 34 35 36 37 38 39 40 41 42 43 44 45 46 47 48 49 50

383
AXUS43 KGID 151902
MISGRI

GID CWA HOURLY WEATHER ROUNDUP
NATIONAL WEATHER SERVICE HASTINGS NE
200 PM CDT SUN OCT 15 2017

NOTE: "FAIR" INDICATES FEW OR NO CLOUDS BELOW 12,000 FEET WITH NO
SIGNIFICANT WEATHER AND/OR OBSTRUCTIONS TO VISIBILITY.

...SOUTH CENTRAL NEBRASKA...

CITY           SKY/WX    TMP DP  RH WIND       PRES   REMARKS
GRAND ISLAND   SUNNY     60  32  34 SW15      30.37F
HASTINGS       SUNNY     57  29  34 W9G16     30.38F
KEARNEY        SUNNY     58  32  37 W14G20    30.38F
ORD            SUNNY     60  31  33 NW13G26   30.33F
YORK           SUNNY     57  32  38 W13       30.36F
AURORA         SUNNY     57  30  35 NW6G16    30.36F
LEXINGTON      SUNNY     60  31  33 W13G23    30.37F
HOLDREGE       SUNNY     58  30  33 NW10G18   30.38F
HEBRON         SUNNY     58  33  38 NW9G16    30.39F

...NEBRASKA PANHANDLE...

CITY           SKY/WX    TMP DP  RH WIND       PRES   REMARKS
CHADRON        SUNNY     58  23  26 NW16G25   30.39F
ALLIANCE       SUNNY     58  22  24 NW13G22   30.38F
SCOTTSBLUFF    SUNNY     60  22  23 NW16      30.41F
SIDNEY         SUNNY     59  19  21 W9G16     30.42F

...WESTERN AND NORTH CENTRAL NEBRASKA...

CITY           SKY/WX    TMP DP  RH WIND       PRES   REMARKS
VALENTINE      SUNNY     61  28  28 NW14G30   30.33F
AINSWORTH      SUNNY     58  29  32 NW14G22   30.33F
ONEILL         SUNNY     58  32  36 NW12G23   30.32F
BROKEN BOW     SUNNY     61  32  33 NW10G20   30.34F
IMPERIAL       SUNNY     62  18  18 NW13      30.41F
NORTH PLATTE   SUNNY     62  33  33 W17       30.37F
MCCOOK         SUNNY     62  28  27 W12       30.40F

...EASTERN NEBRASKA...

CITY           SKY/WX    TMP DP  RH WIND       PRES   REMARKS
NORFOLK        SUNNY     57  32  38 W14       30.31F
SO SIOUX CITY  SUNNY     58  35  42 W14G22    30.31F
TEKAMAH        SUNNY     58  31  35 VRB5      30.32F
COLUMBUS       SUNNY     58  34  40 SW9       30.35F
ALBION         SUNNY     59  32  35 W10G17    30.34F
OMAHA EPPLEY   SUNNY     58  34  40 NW15      30.34F
OFFUTT AFB     SUNNY     56  34  43 NW13G22   30.34F
MILLARD        SUNNY     57  37  45 NW7       30.34F
LINCOLN        SUNNY     59  31  34 W8G16     30.37F
NEBRASKA CITY  SUNNY     57  34  42 NW13G20   30.36F
BEATRICE       SUNNY     57  34  41 NW5       30.37F
FALLS CITY     SUNNY     57  34  41 N12       30.35F

...NORTHERN KANSAS...

CITY           SKY/WX    TMP DP  RH WIND       PRES   REMARKS
GOODLAND       SUNNY     62  27  26 W7        30.43F
HILL CITY      SUNNY     61  33  35 NW7G17    30.43F
NORTON         CLEAR     61  23  23 W10G17    30.40F
PHILLIPSBURG   SUNNY     61  30  31 W9        30.41F
SMITH CENTER   SUNNY     61  30  31 NW6G16    30.41F
HAYS           SUNNY     60  32  34 W8        30.43F
RUSSELL        SUNNY     59  35  40 VRB6      30.41F
CONCORDIA      SUNNY     59  33  37 NW10      30.40F
SALINA         SUNNY     61  37  41 N12       30.42F
TOPEKA         SUNNY     61  38  42 NW14      30.36F



USA.gov is the U.S. government's official web portal to all federal, state and local government web resources and services.